"2010-12-28 00:00:00",461101,9.67,159.4,3.318,0.528,8.66,101.4858,3.09,4.3,27.76,0,109.7,13.49,3.85,121.4
"2010-12-28 00:00:30",461102,9.71,159.6,2.773,0.764,8.74,101.4872,3.094,4.291,27.89,0,109.7,13.49,3.86,121.6
"2010-12-28 00:01:00",461103,9.69,158.7,2.609,0.758,8.35,101.4884,3.097,4.287,27.66,0,109.8,13.49,3.86,120.7
"2010-12-28 00:01:30",461104,9.8,158.8,2.488,0.752,8.4,101.4881,3.096,4.286,27.57,0,109.7,13.49,3.86,120.8
"2010-12-28 00:02:00",461105,9.79,159.8,1.578,0.768,8.32,101.489,3.099,4.269,27.64,0,109.7,13.49,3.86,121.8
"2010-12-28 00:02:30",461106,9.72,160.2,1.642,0.844,8.36,101.4861,3.091,4.255,27.7,0,109.7,13.49,3.85,122.2
"2010-12-28 00:03:00",461107,9.87,159.5,2.109,0.737,8.07,101.4765,3.067,4.252,27.65,0,109.7,13.49,3.83,121.5
"2010-12-28 00:03:30",461108,9.77,158.3,1.975,0.847,8.08,101.4717,3.055,4.252,27.39,0,109.7,13.49,3.82,120.3
"2010-12-28 00:04:00",461109,9.82,159.4,2.263,0.833,8.01,101.4691,3.048,4.238,27.42,0,109.7,13.49,3.81,121.4
"2010-12-28 00:04:30",461110,9.9,160.3,1.568,0.757,8.13,101.4626,3.031,4.22,27.48,0,109.7,13.49,3.79,122.3
"2010-12-28 00:05:00",461111,10.16,159.1,2.809,0.65,7.949,101.4576,3.018,4.235,27.41,0,109.7,13.49,3.78,121.1
"2010-12-28 00:05:30",461112,9.97,159.9,1.99,0.85,7.911,101.4556,3.013,4.223,27.43,0,109.7,13.49,3.78,121.9
"2010-12-28 00:06:00",461113,9.85,160.1,1.925,0.854,8,101.4567,3.016,4.212,27.54,0,109.7,13.49,3.78,122.1
"2010-12-28 00:06:30",461114,9.84,159.3,1.873,0.762,8.21,101.4564,3.016,4.209,27.5,0,109.7,13.49,3.78,121.3
"2010-12-28 00:07:00",461115,9.99,160,2.588,0.638,7.979,101.4573,3.018,4.194,27.5,0,109.7,13.49,3.78,122.0
"2010-12-28 00:07:30",461116,10.01,160.5,2.637,0.766,8.05,101.4593,3.023,4.194,27.61,0,109.7,13.49,3.79,122.5
"2010-12-28 00:08:00",461117,10.03,161.5,2.506,0.755,8.05,101.4573,3.018,4.184,27.62,0,109.7,13.49,3.78,123.5
"2010-12-28 00:08:30",461118,10.07,161.9,2.594,0.752,8.14,101.4522,3.005,4.171,27.57,0,109.7,13.49,3.77,123.9
"2010-12-28 00:09:00",461119,10,161.6,2.517,0.738,7.888,101.4491,2.997,4.184,27.54,0,109.8,13.49,3.76,123.6
"2010-12-28 00:09:30",461120,9.87,161.1,2.676,0.763,7.871,101.4457,2.988,4.181,27.53,0,109.7,13.49,3.75,123.1
"2010-12-28 00:10:00",461121,9.81,160.9,2.061,0.754,7.805,101.4449,2.986,4.152,27.54,0,109.7,13.49,3.75,122.9
"2010-12-28 00:10:30",461122,9.89,160.6,2.525,0.749,7.959,101.4432,2.982,4.139,27.57,0,109.7,13.49,3.74,122.6
"2010-12-28 00:11:00",461123,10.1,160.6,2.813,0.638,7.948,101.4404,2.975,4.165,27.52,0,109.7,13.49,3.74,122.6
"2010-12-28 00:11:30",461124,9.98,160.5,2.998,0.835,7.954,101.4381,2.969,4.162,27.5,0,109.7,13.5,3.73,122.5
"2010-12-28 00:12:00",461125,10,161,2.503,0.752,7.94,101.4336,2.957,4.139,27.57,0,109.7,13.49,3.72,123.0
"2010-12-28 00:12:30",461126,9.92,160.8,2.112,0.762,8.04,101.4327,2.955,4.148,27.63,0,109.7,13.5,3.72,122.8
"2010-12-28 00:13:00",461127,9.98,160.6,2.544,0.642,7.918,101.4324,2.954,4.144,27.67,0,109.7,13.5,3.72,122.6
"2010-12-28 00:13:30",461128,9.82,161.4,2.485,0.753,7.856,101.4299,2.948,4.161,27.7,0,109.7,13.49,3.71,123.4
"2010-12-28 00:14:00",461129,9.71,161.9,2.648,0.753,7.938,101.4327,2.955,4.142,27.68,0,109.7,13.49,3.72,123.9
"2010-12-28 00:14:30",461130,9.47,163.6,2.88,0.846,7.977,101.4387,2.97,4.148,27.74,0,109.7,13.49,3.73,125.6
"2010-12-28 00:15:00",461131,8.73,160.8,6.067,1.177,6.635,101.4537,3.008,4.083,27.97,0,109.7,13.5,3.77,122.8
"2010-12-28 00:15:30",461132,8.7,160.8,6.044,1.161,6.636,101.4596,3.024,4.023,27.96,0,109.7,13.5,3.79,122.8
"2010-12-28 00:16:00",461133,8.71,157.5,6.446,1.193,6.503,101.4596,3.024,4.012,27.52,0,109.7,13.5,3.79,119.5
"2010-12-28 00:16:30",461134,9.45,161.4,5.122,0.933,8.61,101.4596,3.024,4.146,27.42,0,109.7,13.49,3.79,123.4
"2010-12-28 00:17:00",461135,9.63,162.7,3.946,0.696,9.06,101.4596,3.024,4.171,27.42,0,109.7,13.49,3.79,124.7
"2010-12-28 00:17:30",461136,9.63,163.1,3.317,0.78,9.17,101.4596,3.024,4.18,27.39,0,109.7,13.49,3.79,125.1
"2010-12-28 00:18:00",461137,9.22,161.8,5.361,1.096,8.26,101.4585,3.021,4.109,27.29,0,109.7,13.49,3.78,123.8
"2010-12-28 00:18:30",461138,9.52,162.8,4.351,0.921,8.25,101.452,3.004,4.073,27.32,0,109.7,13.49,3.77,124.8
"2010-12-28 00:19:00",461139,9.04,159.6,6.269,1.19,7.39,101.4429,2.981,4.099,27.4,0,109.7,13.49,3.74,121.6
"2010-12-28 00:19:30",461140,8.96,159.7,5.931,1.171,7.446,101.4358,2.963,4.075,27.49,0,109.7,13.49,3.73,121.7
"2010-12-28 00:20:00",461141,9.23,161,5.405,1.092,7.87,101.4305,2.949,4.094,27.53,0,109.7,13.49,3.71,123.0
"2010-12-28 00:20:30",461142,9.13,160.5,5.704,1.137,7.924,101.4279,2.943,4.082,27.5,0,109.6,13.49,3.71,122.5
"2010-12-28 00:21:00",461143,9.23,160.7,5.863,1.062,8.06,101.4259,2.938,4.034,27.42,0,109.7,13.5,3.70,122.7
"2010-12-28 00:21:30",461144,9.32,162.6,4.796,0.977,8.56,101.4259,2.938,4.092,27.48,0,109.7,13.5,3.70,124.6
"2010-12-28 00:22:00",461145,8.89,161.2,5.877,1.101,8.12,101.4257,2.937,4.151,27.52,0,109.7,13.51,3.70,123.2
"2010-12-28 00:22:30",461146,9.6,163.9,4.404,0.314,9.13,101.4265,2.939,4.139,27.46,0,109.7,13.51,3.70,125.9
"2010-12-28 00:23:00",461147,9.05,163.5,5.191,1.08,8.42,101.4313,2.951,4.064,27.37,0,109.7,13.51,3.71,125.5
"2010-12-28 00:23:30",461148,8.88,162.9,6.231,1.147,7.252,101.4424,2.98,4.011,27.22,0,109.7,13.51,3.74,124.9
"2010-12-28 00:24:00",461149,8.15,159.2,5.366,1.247,6.33,101.4545,3.011,4.024,27.21,0,109.7,13.51,3.77,121.2
"2010-12-28 00:24:30",461150,8.97,162,6.018,1.146,8.4,101.4593,3.023,4.107,27.14,0,109.7,13.51,3.79,124.0
"2010-12-28 00:25:00",461151,9.58,164.4,3.657,0.67,9.23,101.4588,3.021,4.149,27.19,0,109.7,13.51,3.78,126.4
"2010-12-28 00:25:30",461152,9.53,161.9,5.689,0.875,8.73,101.4568,3.016,4.149,27.17,0,109.7,13.51,3.78,123.9
"2010-12-28 00:26:00",461153,9.84,164,3.486,0.649,8.78,101.4457,2.988,4.163,27.27,0,109.7,13.51,3.75,126.0
"2010-12-28 00:26:30",461154,9.67,162.4,5.01,0.885,8.36,101.4418,2.978,4.125,27.12,0,109.7,13.51,3.74,124.4
"2010-12-28 00:27:00",461155,9.28,161.3,5.558,1.105,7.872,101.4375,2.967,4.087,26.89,0,109.7,13.51,3.73,123.3
"2010-12-28 00:27:30",461156,8.3,158.7,6.181,1.178,6.245,101.4398,2.973,4.006,26.64,0,109.7,13.51,3.74,120.7
"2010-12-28 00:28:00",461157,8.85,162,6.399,1.239,7.338,101.4489,2.996,4.072,26.75,0,109.7,13.51,3.76,124.0
"2010-12-28 00:28:30",461158,9.27,164.6,5.167,1.034,8.51,101.4596,3.024,4.09,26.83,0,109.7,13.51,3.79,126.6
"2010-12-28 00:29:00",461159,9.64,165.5,3.288,0.687,9.36,101.4596,3.024,4.184,26.67,0,109.7,13.51,3.79,127.5
"2010-12-28 00:29:30",461160,9.28,166.3,4.474,1.057,8.81,101.4596,3.024,4.169,26.54,0,109.7,13.51,3.79,128.3
"2010-12-28 00:30:00",461161,9.52,167.9,4.496,0.883,8.68,101.4596,3.024,4.152,27.11,0,109.7,13.51,3.79,129.9
"2010-12-28 00:30:30",461162,9.62,167.4,4.028,0.943,8.53,101.4658,3.04,4.163,27.46,0,109.7,13.51,3.80,129.4
"2010-12-28 00:31:00",461163,9.9,167.8,3.815,0.529,8.87,101.4763,3.066,4.214,27.52,0,109.7,13.51,3.83,129.8
"2010-12-28 00:31:30",461164,8.14,159.1,5.143,1.053,5.165,101.4859,3.091,4.012,27.06,0,109.7,13.51,3.85,121.1
"2010-12-28 00:32:00",461165,9.06,163.6,6.141,1.153,6.843,101.4919,3.106,4.125,26.94,0,109.7,13.51,3.87,125.6
"2010-12-28 00:32:30",461166,9.2,166.2,7.127,1.256,7.504,101.4935,3.11,4.181,27.16,0,109.7,13.5,3.87,128.2
"2010-12-28 00:33:00",461167,10.11,171.8,5.032,0.843,9.33,101.4935,3.11,4.258,28.2,0,109.7,13.51,3.87,133.8
"2010-12-28 00:33:30",461168,10.2,168.9,4.455,0.718,9.34,101.4938,3.111,4.279,27.98,0,109.7,13.51,3.87,130.9
"2010-12-28 00:34:00",461169,10.24,167.9,3.546,0.784,9.61,101.4975,3.12,4.296,27.73,0,109.7,13.5,3.88,129.9
"2010-12-28 00:34:30",461170,10.26,167.4,3.331,0.546,9.31,101.506,3.142,4.28,27.54,0,109.7,13.5,3.91,129.4
"2010-12-28 00:35:00",461171,10.38,168.2,3.383,0.471,8.86,101.5111,3.155,4.289,27.46,0,109.7,13.5,3.92,130.2
"2010-12-28 00:35:30",461172,9.79,168.3,2.815,0.753,8.74,101.5162,3.168,4.334,26.65,0,109.8,13.5,3.93,130.3
"2010-12-28 00:36:00",461173,9.94,170.2,3.35,0.685,8.45,101.5272,3.196,4.319,26.47,0,109.7,13.5,3.96,132.2
"2010-12-28 00:36:30",461174,8.6,162.4,5.29,1.026,5.557,101.5275,3.197,4.08,26.86,0,109.7,13.5,3.96,124.4
"2010-12-28 00:37:00",461175,8.69,164.3,4.989,1.024,5.716,101.5275,3.197,4.178,27.32,0,109.7,13.5,3.96,126.3
"2010-12-28 00:37:30",461176,9.74,172.7,4.958,1.041,8.49,101.5281,3.198,4.369,26.97,0,109.7,13.5,3.96,134.7
"2010-12-28 00:38:00",461177,9.81,172.1,3.566,0.552,9.39,101.5286,3.2,4.367,25.51,0,109.7,13.51,3.96,134.1
"2010-12-28 00:38:30",461178,9.49,170.6,3.519,0.764,9.1,101.5281,3.198,4.381,24.27,0,109.7,13.51,3.96,132.6
"2010-12-28 00:39:00",461179,8.71,168.2,6.142,1.2,7.991,101.5275,3.197,4.362,24.02,0,109.7,13.51,3.96,130.2
"2010-12-28 00:39:30",461180,8.7,170.1,6.126,1.117,8.13,101.5275,3.197,4.291,23.88,0,109.7,13.51,3.96,132.1
"2010-12-28 00:40:00",461181,8.51,171.9,6.544,1.21,7.441,101.5275,3.197,4.275,25.9,0,109.7,13.51,3.96,133.9
"2010-12-28 00:40:30",461182,8.86,169.7,5.51,1.185,7.837,101.532,3.208,4.348,26.05,0,109.7,13.51,3.97,131.7
"2010-12-28 00:41:00",461183,9.07,169.3,5.46,1.137,7.922,101.5334,3.212,4.331,24.28,0,109.7,13.51,3.98,131.3
"2010-12-28 00:41:30",461184,9.12,167.6,5.361,1.16,8.27,101.5326,3.21,4.357,23.86,0,109.7,13.51,3.97,129.6
"2010-12-28 00:42:00",461185,9.05,165.8,6.546,1.185,7.853,101.5292,3.201,4.31,23.68,0,109.7,13.51,3.96,127.8
"2010-12-28 00:42:30",461186,9.4,167.4,6.256,1.194,7.8,101.5312,3.206,4.297,23.49,0,109.7,13.51,3.97,129.4
"2010-12-28 00:43:00",461187,9.79,171.6,8.61,1.216,8.52,101.5323,3.209,4.355,24.18,0,109.8,13.51,3.97,133.6
"2010-12-28 00:43:30",461188,9.98,177.3,6.389,1.023,9.56,101.5535,3.263,4.423,27.75,0,109.7,13.51,4.03,139.3
"2010-12-28 00:44:00",461189,9.49,172.2,8.65,1.157,8.65,101.5614,3.284,4.378,27.73,0,109.7,13.51,4.05,134.2
"2010-12-28 00:44:30",461190,9.74,167.5,6.881,1.049,8.07,101.5617,3.284,4.348,24.77,0,109.7,13.51,4.05,129.5
"2010-12-28 00:45:00",461191,9.13,172.9,7.552,1.314,7.118,101.5629,3.287,4.358,25.62,0,109.6,13.51,4.05,134.9
"2010-12-28 00:45:30",461192,9.71,193.1,7.116,1.746,8.73,101.5892,3.354,4.407,28.25,0,109.7,13.51,4.12,155.1
"2010-12-28 00:46:00",461193,9.61,178.8,5.095,1.129,9.33,101.603,3.39,4.438,28.52,0,109.7,13.51,4.15,140.8
"2010-12-28 00:46:30",461194,8.83,176.8,4.906,1.064,9.14,101.6256,3.447,4.505,27.81,0,109.7,13.51,4.21,138.8
"2010-12-28 00:47:00",461195,8.27,167.9,5.831,1.043,7.718,101.6271,3.451,4.509,25.44,0,109.7,13.51,4.22,129.9
"2010-12-28 00:47:30",461196,9,169.6,5.219,0.786,8.65,101.6149,3.42,4.437,23.73,0,109.7,13.51,4.18,131.6
"2010-12-28 00:48:00",461197,7.888,162.5,5.846,1.1,6.302,101.6024,3.388,4.441,23.08,0,109.7,13.51,4.15,124.5
"2010-12-28 00:48:30",461198,8.47,164.9,6.372,1.22,7.497,101.5962,3.372,4.486,23.25,0,109.7,13.51,4.14,126.9
"2010-12-28 00:49:00",461199,9.25,162.3,6.608,1.267,7.141,101.5954,3.37,4.409,24.21,0,109.7,13.51,4.13,124.3
"2010-12-28 00:49:30",461200,10.51,167,4.946,0.93,8.94,101.5844,3.342,4.518,25.39,0,109.7,13.51,4.11,129.0
"2010-12-28 00:50:00",461201,10.7,169.6,4.829,0.802,9.46,101.5648,3.292,4.504,25.52,0,109.7,13.51,4.06,131.6
"2010-12-28 00:50:30",461202,10.69,171.1,4.173,0.778,9.76,101.5614,3.284,4.497,24.76,0,109.7,13.51,4.05,133.1
"2010-12-28 00:51:00",461203,10.68,169.7,3.717,0.701,9.23,101.5614,3.284,4.498,24.41,0,109.7,13.51,4.05,131.7
"2010-12-28 00:51:30",461204,10.68,170.4,2.873,0.763,9.09,101.5614,3.284,4.5,24.39,0,109.7,13.5,4.05,132.4
"2010-12-28 00:52:00",461205,10.67,166.7,4.094,0.7,8.91,101.5614,3.284,4.475,24.35,0,109.7,13.5,4.05,128.7
"2010-12-28 00:52:30",461206,10.25,166.4,5.109,0.746,8.8,101.5614,3.284,4.484,24.78,0,109.7,13.5,4.05,128.4
"2010-12-28 00:53:00",461207,10.1,166.6,2.904,0.78,8.6,101.564,3.29,4.497,24.25,0,109.7,13.5,4.05,128.6
"2010-12-28 00:53:30",461208,10.22,164.3,6.22,0.925,8.48,101.5719,3.31,4.509,24.76,0,109.7,13.5,4.07,126.3
"2010-12-28 00:54:00",461209,11.36,159.7,3.32,0.594,8.27,101.5725,3.312,4.497,26.36,0,109.7,13.5,4.08,121.7
"2010-12-28 00:54:30",461210,11.28,163.8,2.479,0.673,8.56,101.5634,3.289,4.497,26.19,0,109.7,13.51,4.05,125.8
"2010-12-28 00:55:00",461211,11.13,165.4,4.064,0.361,8.55,101.5617,3.284,4.494,25.27,0,109.7,13.51,4.05,127.4
"2010-12-28 00:55:30",461212,10.96,165.6,3.491,0.77,8.44,101.562,3.285,4.489,25.49,0,109.7,13.51,4.05,127.6
"2010-12-28 00:56:00",461213,10.96,167.7,4.887,0.956,8.45,101.5614,3.284,4.476,25.41,0,109.7,13.51,4.05,129.7
"2010-12-28 00:56:30",461214,10.38,169.1,5.313,0.844,8.57,101.5617,3.284,4.479,24.74,0,109.7,13.51,4.05,131.1
"2010-12-28 00:57:00",461215,10.93,166.4,5.42,0.646,8.44,101.5643,3.291,4.457,25.35,0,109.7,13.51,4.05,128.4
"2010-12-28 00:57:30",461216,9.94,161,8.54,1.179,7.556,101.564,3.29,4.463,26.01,0,109.7,13.51,4.05,123.0
"2010-12-28 00:58:00",461217,9.93,157.4,7.401,1.232,7.216,101.5623,3.286,4.438,26.07,0,109.7,13.51,4.05,119.4
"2010-12-28 00:58:30",461218,10.54,160.5,5.21,1.101,7.552,101.5614,3.284,4.384,26.95,0,109.7,13.51,4.05,122.5
"2010-12-28 00:59:00",461219,10.94,162.9,4.878,0.815,8.83,101.5614,3.284,4.494,26.72,0,109.7,13.51,4.05,124.9
"2010-12-28 00:59:30",461220,10.26,166.3,6.071,0.991,9.07,101.5614,3.284,4.463,25.89,0,109.7,13.51,4.05,128.3
"2010-12-28 01:00:00",461221,11,165.2,6.606,1.05,8.78,101.5614,3.284,4.48,26.52,0,109.7,13.51,4.05,127.2
"2010-12-28 01:00:30",461222,10.6,165.2,3.755,0.931,8.9,101.5614,3.284,4.487,27.18,0,109.7,13.51,4.05,127.2
"2010-12-28 01:01:00",461223,11.27,164.9,4.41,0.726,9.36,101.5603,3.281,4.455,27.23,0,109.7,13.51,4.04,126.9
"2010-12-28 01:01:30",461224,10.24,170.6,6.05,1.285,9.51,101.5606,3.281,4.458,26.56,0,109.7,13.51,4.04,132.6
"2010-12-28 01:02:00",461225,10.45,164,4.752,1.089,7.733,101.5614,3.284,4.435,26.99,0,109.7,13.51,4.05,126.0
"2010-12-28 01:02:30",461226,10.48,165.8,6.192,1.109,7.983,101.5606,3.281,4.396,26.15,0,109.7,13.51,4.04,127.8
"2010-12-28 01:03:00",461227,9.76,169.7,8.37,1.349,7.699,101.5614,3.284,4.308,25.78,0,109.7,13.51,4.05,131.7
"2010-12-28 01:03:30",461228,8.25,172.8,10.73,0.887,7.551,101.5696,3.304,4.417,25.82,0,109.7,13.51,4.07,134.8
"2010-12-28 01:04:00",461229,10.93,165.3,4.779,0.717,8.98,101.5948,3.369,4.446,26.27,0,109.7,13.51,4.13,127.3
"2010-12-28 01:04:30",461230,11.59,166.7,2.493,0.952,8.85,101.5764,3.322,4.52,27.03,0,109.7,13.51,4.09,128.7
"2010-12-28 01:05:00",461231,10.66,160.2,5.542,1.28,7.638,101.5498,3.254,4.417,27.17,0,109.7,13.51,4.02,122.2
"2010-12-28 01:05:30",461232,11.07,166.6,4.802,0.905,8.28,101.5105,3.154,4.365,27.3,0,109.7,13.51,3.92,128.6
"2010-12-28 01:06:00",461233,12.23,161,5.65,0.734,8.31,101.4791,3.073,4.377,27.51,0,109.7,13.51,3.84,123.0
"2010-12-28 01:06:30",461234,11.81,159.7,3.961,0.937,8.35,101.4268,2.94,4.302,27.8,0,109.7,13.5,3.70,121.7
"2010-12-28 01:07:00",461235,10.76,161.3,4.616,1.027,8.14,101.3778,2.815,4.205,28.04,0,109.7,13.5,3.58,123.3
"2010-12-28 01:07:30",461236,9.07,160.1,3.756,0.828,7.851,101.3272,2.686,4.109,28.25,0,109.7,13.5,3.45,122.1
"2010-12-28 01:08:00",461237,9.14,158.4,7.551,1.066,7.728,101.2738,2.549,4,28.45,0,109.7,13.5,3.31,120.4
"2010-12-28 01:08:30",461238,9.98,165.2,2.779,0.8,7.811,101.2339,2.448,3.895,28.6,0,109.7,13.5,3.21,127.2
"2010-12-28 01:09:00",461239,11.07,164.9,2.266,0.739,7.597,101.1946,2.347,3.823,28.71,0,109.7,13.5,3.11,126.9
"2010-12-28 01:09:30",461240,10.82,168.3,3.904,0.767,7.839,101.1815,2.314,3.767,28.86,0,109.7,13.5,3.07,130.3
"2010-12-28 01:10:00",461241,10.14,172.8,4.165,1.031,7.381,101.1558,2.248,3.685,29.04,0,109.7,13.5,3.01,134.8
"2010-12-28 01:10:30",461242,9.67,171,5.212,1.044,7.386,101.1298,2.182,3.617,29.2,0,109.7,13.51,2.94,133.0
"2010-12-28 01:11:00",461243,9.25,163.3,3.186,0.788,6.993,101.1055,2.12,3.546,29.27,0,109.7,13.51,2.88,125.3
"2010-12-28 01:11:30",461244,10.44,169,3.145,0.773,6.953,101.0825,2.061,3.497,29.39,0,109.7,13.51,2.82,131.0
"2010-12-28 01:12:00",461245,10.37,171,2.232,0.83,6.9,101.0568,1.996,3.426,29.51,0,109.7,13.51,2.75,133.0
"2010-12-28 01:12:30",461246,10.17,174,3.92,0.832,7.244,101.0398,1.952,3.358,29.64,0,109.7,13.51,2.71,136.0
"2010-12-28 01:13:00",461247,9.89,174.5,1.804,0.747,6.989,101.0183,1.898,3.307,29.79,0,109.7,13.51,2.66,136.5
"2010-12-28 01:13:30",461248,9.95,171,3.612,0.874,6.904,100.9988,1.848,3.252,29.79,0,109.7,13.51,2.61,133.0
"2010-12-28 01:14:00",461249,9.4,171.4,3.564,0.753,6.898,100.9844,1.811,3.193,29.51,0,109.7,13.51,2.57,133.4
"2010-12-28 01:14:30",461250,9.89,167.8,2.85,0.698,6.984,100.9719,1.779,3.143,29.53,0,109.7,13.51,2.54,129.8
"2010-12-28 01:15:00",461251,9.9,162.7,5.026,0.83,6.77,100.9629,1.756,3.047,29.37,0,109.7,13.51,2.51,124.7
"2010-12-28 01:15:30",461252,9.64,160.2,4.447,1.118,6.853,100.966,1.764,3.084,29.49,0,109.7,13.51,2.52,122.2
"2010-12-28 01:16:00",461253,9.94,156.3,6.332,1.152,6.326,100.9671,1.767,3.011,29.45,0,109.7,13.51,2.53,118.3
"2010-12-28 01:16:30",461254,10.22,160.5,5.588,0.927,7.416,100.9615,1.753,3.009,29.5,0,109.7,13.51,2.51,122.5
"2010-12-28 01:17:00",461255,10.16,162.6,4.192,0.827,7.67,100.9535,1.732,3.053,29.65,0,109.7,13.51,2.49,124.6
"2010-12-28 01:17:30",461256,9.36,170.1,4.717,0.784,7.639,100.9504,1.724,3.024,29.89,0,109.7,13.51,2.48,132.1
"2010-12-28 01:18:00",461257,9.39,168.6,4.125,0.679,7.696,100.9439,1.708,2.968,29.98,0,109.7,13.51,2.47,130.6
"2010-12-28 01:18:30",461258,9.91,163,5.649,0.797,7.494,100.9507,1.725,2.972,29.97,0,109.7,13.51,2.48,125.0
"2010-12-28 01:19:00",461259,10.47,154.8,3.577,0.78,7.029,100.9487,1.72,2.98,29.95,0,109.7,13.51,2.48,116.8
"2010-12-28 01:19:30",461260,10.34,157.8,4.144,0.681,7.363,100.9326,1.679,2.963,29.96,0,109.7,13.51,2.44,119.8
"2010-12-28 01:20:00",461261,10.17,157.5,3.495,0.634,7.585,100.9295,1.671,2.943,29.9,0,109.7,13.51,2.43,119.5
"2010-12-28 01:20:30",461262,10.32,156,3.447,0.552,7.43,100.9307,1.674,2.923,29.82,0,109.7,13.51,2.43,118.0
"2010-12-28 01:21:00",461263,10.33,157.6,3.668,0.57,7.555,100.9276,1.666,2.929,29.72,0,109.7,13.51,2.42,119.6
"2010-12-28 01:21:30",461264,10,157.2,2.053,0.835,7.42,100.9287,1.669,2.915,29.69,0,109.7,13.51,2.43,119.2
"2010-12-28 01:22:00",461265,10.09,155.4,1.801,0.829,7.347,100.9279,1.667,2.908,29.53,0,109.7,13.51,2.42,117.4
"2010-12-28 01:22:30",461266,10.17,152.2,2.501,0.849,7.624,100.9324,1.678,2.907,29.49,0,109.7,13.51,2.44,114.2
"2010-12-28 01:23:00",461267,10.02,150.7,2.077,0.776,7.45,100.9335,1.681,2.904,29.53,0,109.6,13.51,2.44,112.7
"2010-12-28 01:23:30",461268,9.91,149.7,2.578,0.854,7.454,100.9316,1.676,2.914,29.56,0,109.7,13.51,2.43,111.7
"2010-12-28 01:24:00",461269,9.59,157.8,3.239,0.836,7.662,100.9324,1.678,2.887,29.61,0,109.7,13.51,2.44,119.8
"2010-12-28 01:24:30",461270,9.78,157.7,3.155,0.769,7.59,100.9356,1.686,2.887,29.66,0,109.7,13.51,2.44,119.7
"2010-12-28 01:25:00",461271,9.82,153.9,2.909,0.692,7.459,100.9339,1.682,2.886,29.64,0,109.7,13.51,2.44,115.9
"2010-12-28 01:25:30",461272,9.6,159,2.818,0.778,7.487,100.9291,1.67,2.905,29.72,0,109.7,13.51,2.43,121.0
"2010-12-28 01:26:00",461273,9.58,160.7,3.008,0.737,7.59,100.935,1.685,2.886,29.81,0,109.7,13.51,2.44,122.7
"2010-12-28 01:26:30",461274,9.54,159.2,1.776,0.74,7.436,100.9427,1.705,2.878,29.84,0,109.7,13.51,2.46,121.2
"2010-12-28 01:27:00",461275,9.96,154.6,2.148,0.808,6.946,100.948,1.718,2.88,29.76,0,109.7,13.51,2.48,116.6
"2010-12-28 01:27:30",461276,9.89,154.5,2.221,0.824,7.083,100.9398,1.697,2.904,29.77,0,109.7,13.51,2.46,116.5
"2010-12-28 01:28:00",461277,9.49,154.5,2.559,0.842,7.31,100.9348,1.684,2.888,29.65,0,109.7,13.52,2.44,116.5
"2010-12-28 01:28:30",461278,9.26,151.5,3.093,0.757,7.424,100.9356,1.687,2.884,29.6,0,109.7,13.52,2.44,113.5
"2010-12-28 01:29:00",461279,9.63,149.7,5.285,0.717,6.919,100.9345,1.684,2.88,29.79,0,109.7,13.52,2.44,111.7
"2010-12-28 01:29:30",461280,9.05,158,3.523,0.833,6.742,100.9093,1.619,2.854,30.26,0,109.7,13.52,2.38,120.0
"2010-12-28 01:30:00",461281,9.16,156.7,5.308,0.808,6.88,100.8773,1.538,2.809,30.34,0,109.7,13.52,2.30,118.7
"2010-12-28 01:30:30",461282,9.28,150.6,4.083,0.685,7.296,100.8637,1.503,2.76,30.15,0,109.7,13.52,2.26,112.6
"2010-12-28 01:31:00",461283,9.35,149.4,1.986,0.735,7.068,100.8502,1.469,2.73,30.1,0,109.6,13.52,2.23,111.4
"2010-12-28 01:31:30",461284,8.82,151.7,2.514,0.84,7.274,100.8496,1.467,2.707,30,0,109.7,13.52,2.22,113.7
"2010-12-28 01:32:00",461285,8.68,151,3.414,0.767,7.256,100.8626,1.5,2.721,29.89,0,109.7,13.52,2.26,113.0
"2010-12-28 01:32:30",461286,9.54,156.6,6.395,0.89,7.553,100.8683,1.515,2.714,30.1,0,109.7,13.52,2.27,118.6
"2010-12-28 01:33:00",461287,9.7,149,3.058,0.785,6.974,100.8674,1.513,2.704,30.06,0,109.7,13.52,2.27,111.0
"2010-12-28 01:33:30",461288,9.88,152.5,2.862,0.842,7.314,100.8683,1.515,2.721,30.07,0,109.7,13.52,2.27,114.5
"2010-12-28 01:34:00",461289,10.17,149.1,2.899,0.837,7.2,100.8689,1.516,2.699,29.92,0,109.7,13.52,2.27,111.1
"2010-12-28 01:34:30",461290,10.2,148,1.855,0.862,7.381,100.87,1.519,2.712,30.15,0,109.7,13.52,2.28,110.0
"2010-12-28 01:35:00",461291,10.04,149.1,2.949,0.646,7.605,100.8706,1.521,2.714,29.96,0,109.7,13.52,2.28,111.1
"2010-12-28 01:35:30",461292,9.86,149.8,2.15,0.835,7.625,100.8711,1.522,2.707,29.97,0,109.7,13.52,2.28,111.8
"2010-12-28 01:36:00",461293,9.7,152.7,3.058,0.773,7.719,100.8763,1.535,2.708,29.93,0,109.7,13.52,2.29,114.7
"2010-12-28 01:36:30",461294,9.27,155.9,3.02,0.765,7.919,100.891,1.573,2.72,29.83,0,109.7,13.52,2.33,117.9
"2010-12-28 01:37:00",461295,9.42,154.6,2.388,0.78,7.597,100.9085,1.617,2.727,29.79,0,109.7,13.52,2.38,116.6
"2010-12-28 01:37:30",461296,9.87,152.9,1.729,0.843,7.436,100.9094,1.62,2.767,29.75,0,109.7,13.52,2.38,114.9
"2010-12-28 01:38:00",461297,9.48,155.4,1.762,0.834,7.528,100.9102,1.622,2.768,29.69,0,109.7,13.52,2.38,117.4
"2010-12-28 01:38:30",461298,9.56,155.6,1.795,0.823,7.691,100.9199,1.646,2.786,29.63,0,109.7,13.52,2.40,117.6
"2010-12-28 01:39:00",461299,9.74,156.3,1.663,0.731,7.512,100.9408,1.7,2.798,29.64,0,109.6,13.52,2.46,118.3
"2010-12-28 01:39:30",461300,9.64,152.7,2.063,0.828,7.467,100.9442,1.708,2.831,29.71,0,109.7,13.52,2.47,114.7
"2010-12-28 01:40:00",461301,9.76,150.9,3.713,0.651,7.387,100.9442,1.708,2.813,29.74,0,109.7,13.52,2.47,112.9
"2010-12-28 01:40:30",461302,9.67,157.4,3.741,0.749,7.852,100.9442,1.708,2.846,29.67,0,109.7,13.52,2.47,119.4
"2010-12-28 01:41:00",461303,9.55,163.3,3.292,0.665,7.672,100.943,1.706,2.829,29.64,0,109.6,13.52,2.46,125.3
"2010-12-28 01:41:30",461304,9.24,161,3.243,0.84,7.459,100.9476,1.717,2.855,29.61,0,109.7,13.52,2.48,123.0
"2010-12-28 01:42:00",461305,9.26,165,4.771,0.773,7.781,100.9682,1.77,2.874,29.65,0,109.7,13.52,2.53,127.0
"2010-12-28 01:42:30",461306,9.16,161.1,7.226,1.044,7.675,100.9954,1.839,2.928,29.58,0,109.6,13.52,2.60,123.1
"2010-12-28 01:43:00",461307,9.37,156.9,3.828,0.748,7.068,101.0121,1.882,2.947,29.46,0,109.7,13.52,2.64,118.9
"2010-12-28 01:43:30",461308,9.99,158.7,2.914,0.81,7.158,101.0112,1.879,2.979,29.37,0,109.7,13.52,2.64,120.7
"2010-12-28 01:44:00",461309,9.87,161,3.079,0.836,7.309,101.011,1.879,2.988,29.41,0,109.6,13.52,2.64,123.0
"2010-12-28 01:44:30",461310,9.82,162.7,4.647,0.939,7.337,101.0112,1.879,2.998,29.5,0,109.7,13.52,2.64,124.7
"2010-12-28 01:45:00",461311,9.26,174.4,2.706,0.763,7.732,101.0234,1.911,3.021,29.81,0,109.7,13.52,2.67,136.4
"2010-12-28 01:45:30",461312,9.31,170.5,2.586,0.86,7.335,101.0463,1.969,3.068,29.6,0,109.7,13.52,2.73,132.5
"2010-12-28 01:46:00",461313,8.83,166.6,4.201,0.759,7.368,101.0469,1.97,3.087,29.51,0,109.6,13.52,2.73,128.6
"2010-12-28 01:46:30",461314,8.05,156.9,7.245,1.147,5.323,101.0472,1.971,2.972,29.07,0,109.6,13.52,2.73,118.9
"2010-12-28 01:47:00",461315,7.761,152.3,4.802,1.08,4.184,101.0486,1.975,2.98,29.08,0,109.7,13.52,2.73,114.3
"2010-12-28 01:47:30",461316,8.43,161.5,4.954,1.356,6.636,101.0344,1.939,2.985,29.11,0,109.6,13.52,2.70,123.5
"2010-12-28 01:48:00",461317,8.73,171.1,4.619,0.885,7.89,101.0254,1.916,3.055,29.21,0,109.7,13.52,2.67,133.1
"2010-12-28 01:48:30",461318,8.73,169.4,5.634,0.909,7.926,101.0446,1.965,3.082,29.36,0,109.7,13.53,2.72,131.4
"2010-12-28 01:49:00",461319,8.93,168.7,4.918,0.705,8.05,101.0486,1.975,3.087,29.34,0,109.7,13.53,2.73,130.7
"2010-12-28 01:49:30",461320,8.5,160.9,6.571,1.064,6.888,101.0469,1.971,3.018,29.16,0,109.7,13.53,2.73,122.9
"2010-12-28 01:50:00",461321,8.22,162.6,6.711,1.184,7.104,101.0316,1.932,3.009,29.21,0,109.6,13.53,2.69,124.6